Flag for U.S.A. Weather past 2 weeks in Detroit, Michigan, U.S.A.

Now
67 °F

Sunny.


Feels Like: 67 °F
Forecast: 45 / 66 °F
Wind: 7 mph from North

Location: Detroit City Airport

Current Time: Sep 17, 2014 at 3:58:44 PM

Latest Report: Sep 17, 2014 at 2:53 PM


Visibility: 10 mi

Pressure: 29.99 "Hg

Humidity: 41%

Dew point: 42 °F

Location of DetroitLocation

Historic Weather in Detroit — Graph

°F

Detroit temperature yesterday

Maximum temperature yesterday: 69 °F (at 4:53 PM)
Minimum temperature yesterday: 52 °F (at 5:53 AM)
Average temperature yesterday: 60 °F

Past Weeks' High & Low Weather Summary

 TemperatureHumidityPressure
High93 °F (Sep 5, 4:53 PM)97% (Sep 9, 1:53 AM)30.37 "Hg (Sep 9, 1:53 AM)
Low44 °F (Sep 14, 6:53 AM)36% (Sep 16, 4:53 PM)29.60 "Hg (Sep 10, 7:53 PM)
Average65 °F69%30.08 "Hg
* Reported Sep 2 2:00 PM — Sep 17 1:53 PM, Detroit, Weather by CustomWeather, © 2014

Note: Actual official high and low records may vary slightly from our data, if they occured in-between our weather recording intervals... More about our weather records

Advertising

Detroit weather history for previous 24 hours

 ConditionsComfort  
Time TempWeatherWind HumidityBarometerVisibility
1:53 PM
Sep 17
66 °FSunny.6 mph42%30.00 "Hg10 mi
12:53 PM64 °FSunny.6 mph47%30.01 "Hg10 mi
11:53 AM63 °FSunny.N/A47%30.02 "Hg10 mi
10:53 AM59 °FSunny.6 mph51%30.05 "Hg10 mi
9:53 AM57 °FSunny.3 mph60%30.06 "Hg10 mi
8:53 AM53 °FSunny.5 mph69%30.07 "Hg10 mi
7:53 AM50 °FClear.No wind77%30.07 "Hg10 mi
6:53 AM49 °FClear.No wind80%30.06 "Hg10 mi
5:53 AM49 °FPassing clouds.3 mph77%30.06 "Hg10 mi
4:53 AM49 °FPassing clouds.No wind80%30.06 "Hg10 mi
3:53 AM51 °FClear.No wind77%30.07 "Hg10 mi
2:53 AM52 °FClear.No wind75%30.08 "Hg10 mi
1:53 AM54 °FClear.3 mph72%30.08 "Hg10 mi
12:53 AM56 °FClear.No wind67%30.07 "Hg10 mi
11:53 PM
Sep 16
57 °FClear.3 mph67%30.08 "Hg10 mi
10:53 PM56 °FPassing clouds.No wind70%30.07 "Hg10 mi
9:53 PM58 °FClear.No wind65%30.08 "Hg10 mi
8:53 PM62 °FClear.3 mph50%30.08 "Hg10 mi
7:53 PM65 °FPassing clouds.3 mph44%30.07 "Hg10 mi
6:53 PM67 °FPartly sunny.5 mph39%30.08 "Hg10 mi
5:53 PM67 °FScattered clouds.6 mph37%30.07 "Hg10 mi
4:53 PM69 °FPassing clouds.6 mph36%30.08 "Hg10 mi
3:53 PM67 °FSunny.5 mph37%30.09 "Hg10 mi
Weather by CustomWeather, © 2014

See weather overviewHow to use our weather pages